カタログに戻る

STARLINK-5627

運用中通信VLEO
NORAD 55364·PAYLOAD·🇺🇸 United States

打ち上げ Jan 26, 2023 から Cape Canaveral Space Force Station

Loading…

次のパス (今後24時間)

TLE

最新Source: CelesTrak SupGP

元期: Sep 15, 2026, 02:15 UTC

1 55364C 23013AK  26258.09423611  .00029041  00000+0  10519-2 0  2582
2 55364  43.0006 317.1402 0001570 261.3243 351.3445 15.27563653    19

AllMySatでSTARLINK-5627をリアルタイム追跡

Download on the App Store